| time (UTC) | temp F | wind direction | speed MPH | gust MPH | rain 1hr in | rain 24hr in | rain mn in | humidity % | barometer mb |
| 20260902163454 | 94 | 298 | 1.0 | 4.0 | 0.00 | 0.00 | 0.00 | 45 | 1016.0 |
| 20260902162954 | 94 | 235 | 3.0 | 4.0 | 0.00 | 0.00 | 0.00 | 46 | 1016.0 |
| 20260902162454 | 94 | 173 | 3.0 | 7.0 | 0.00 | 0.00 | 0.00 | 45 | 1016.0 |
| 20260902161955 | 94 | 175 | 2.0 | 5.0 | 0.00 | 0.00 | 0.00 | 47 | 1016.0 |
| 20260902161455 | 93 | 220 | 2.0 | 4.0 | 0.00 | 0.00 | 0.00 | 46 | 1016.0 |
| 20260902160954 | 93 | 254 | 1.0 | 2.0 | 0.00 | 0.00 | 0.00 | 48 | 1016.0 |
| 20260902160454 | 92 | 237 | 2.0 | 4.0 | 0.00 | 0.00 | 0.00 | 50 | 1016.0 |
| 20260902155954 | 92 | 56 | 1.0 | 2.0 | 0.00 | 0.00 | 0.00 | 48 | 1016.0 |
| 20260902155454 | 91 | 221 | 2.0 | 2.0 | 0.00 | 0.00 | 0.00 | 50 | 1016.0 |
| 20260902154954 | 91 | 217 | 1.0 | 2.0 | 0.00 | 0.00 | 0.00 | 51 | 1016.0 |
| 20260902154454 | 90 | 205 | 2.0 | 4.0 | 0.00 | 0.00 | 0.00 | 53 | 1016.0 |
| 20260902153954 | 90 | 219 | 2.0 | 4.0 | 0.00 | 0.00 | 0.00 | 55 | 1016.0 |
| 20260902153454 | 89 | 217 | 1.0 | 3.0 | 0.00 | 0.00 | 0.00 | 55 | 1016.0 |
| 20260902152955 | 89 | 231 | 1.0 | 2.0 | 0.00 | 0.00 | 0.00 | 56 | 1016.0 |
| 20260902152455 | 89 | 227 | 2.0 | 3.0 | 0.00 | 0.00 | 0.00 | 57 | 1016.0 |
| 20260902151955 | 89 | 272 | 2.0 | 5.0 | 0.00 | 0.00 | 0.00 | 56 | 1016.0 |
| 20260902151455 | 88 | 200 | 1.0 | 2.0 | 0.00 | 0.00 | 0.00 | 58 | 1016.0 |
| 20260902150956 | 88 | 253 | 2.0 | 3.0 | 0.00 | 0.00 | 0.00 | 58 | 1016.0 |
| 20260902150454 | 88 | 237 | 2.0 | 4.0 | 0.00 | 0.00 | 0.00 | 58 | 1016.0 |
| 20260902145954 | 87 | 201 | 1.0 | 3.0 | 0.00 | 0.00 | 0.00 | 59 | 1016.0 |
| 20260902145455 | 87 | 253 | 2.0 | 6.0 | 0.00 | 0.00 | 0.00 | 59 | 1016.0 |
| 20260902144954 | 86 | 273 | 2.0 | 4.0 | 0.00 | 0.00 | 0.00 | 60 | 1016.0 |
| 20260902144456 | 86 | 121 | 0.0 | 2.0 | 0.00 | 0.00 | 0.00 | 62 | 1016.0 |
| 20260902143955 | 85 | 308 | 0.0 | 1.0 | 0.00 | 0.00 | 0.00 | 62 | 1016.0 |
| 20260902143455 | 85 | 166 | 1.0 | 2.0 | 0.00 | 0.00 | 0.00 | 64 | 1016.0 |
| 20260902142955 | 84 | 175 | 2.0 | 3.0 | 0.00 | 0.00 | 0.00 | 64 | 1016.0 |
| 20260902142458 | 84 | 173 | 2.0 | 3.0 | 0.00 | 0.00 | 0.00 | 63 | 1016.0 |
| 20260902141955 | 84 | 179 | 3.0 | 5.0 | 0.00 | 0.00 | 0.00 | 63 | 1016.0 |
| 20260902141455 | 84 | 154 | 3.0 | 4.0 | 0.00 | 0.00 | 0.00 | 63 | 1016.0 |
| 20260902140954 | 83 | 207 | 2.0 | 3.0 | 0.00 | 0.00 | 0.00 | 64 | 1016.0 |
| 20260902140455 | 83 | 189 | 1.0 | 2.0 | 0.00 | 0.00 | 0.00 | 66 | 1016.0 |
| 20260902135957 | 83 | 290 | 0.0 | 1.0 | 0.00 | 0.00 | 0.00 | 66 | 1016.0 |
| 20260902135456 | 82 | 261 | 2.0 | 4.0 | 0.00 | 0.00 | 0.00 | 67 | 1016.0 |
| 20260902134954 | 82 | 215 | 2.0 | 4.0 | 0.00 | 0.00 | 0.00 | 68 | 1016.0 |
| 20260902134454 | 82 | 270 | 2.0 | 3.0 | 0.00 | 0.00 | 0.00 | 68 | 1016.0 |
| 20260902133955 | 81 | 235 | 1.0 | 2.0 | 0.00 | 0.00 | 0.00 | 69 | 1016.0 |
| 20260902133455 | 81 | 214 | 0.0 | 1.0 | 0.00 | 0.00 | 0.00 | 70 | 1016.0 |
| 20260902132954 | 81 | 253 | 2.0 | 4.0 | 0.00 | 0.00 | 0.00 | 71 | 1016.0 |
| 20260902132454 | 80 | 192 | 0.0 | 1.0 | 0.00 | 0.00 | 0.00 | 72 | 1016.0 |
| 20260902131955 | 80 | 242 | 0.0 | 1.0 | 0.00 | 0.00 | 0.00 | 73 | 1016.0 |
| 20260902131455 | 79 | 282 | 0.0 | 0.0 | 0.00 | 0.00 | 0.00 | 74 | 1016.0 |
| 20260902130954 | 79 | 277 | 0.0 | 2.0 | 0.00 | 0.00 | 0.00 | 75 | 1016.0 |
| 20260902130456 | 78 | 227 | 0.0 | 1.0 | 0.00 | 0.00 | 0.00 | 76 | 1015.0 |
| 20260902125954 | 77 | 212 | 0.0 | 2.0 | 0.00 | 0.00 | 0.00 | 78 | 1015.0 |
| 20260902125455 | 77 | 309 | 0.0 | 1.0 | 0.00 | 0.00 | 0.00 | 80 | 1015.0 |
| 20260902124954 | 77 | 360 | 0.0 | 0.0 | 0.00 | 0.00 | 0.00 | 80 | 1015.0 |
| 20260902124454 | 76 | 182 | 0.0 | 1.0 | 0.00 | 0.00 | 0.00 | 81 | 1015.0 |
| 20260902123954 | 76 | 360 | 0.0 | 0.0 | 0.00 | 0.00 | 0.00 | 81 | 1015.0 |
| 20260902123454 | 76 | 360 | 0.0 | 0.0 | 0.00 | 0.00 | 0.00 | 81 | 1015.0 |
| 20260902122954 | 76 | 360 | 0.0 | 0.0 | 0.00 | 0.00 | 0.00 | 81 | 1015.0 |
| 20260902122456 | 76 | 360 | 0.0 | 0.0 | 0.00 | 0.00 | 0.00 | 81 | 1015.0 |
| 20260902121955 | 76 | 360 | 0.0 | 0.0 | 0.00 | 0.00 | 0.00 | 81 | 1015.0 |
| 20260902121455 | 77 | 360 | 0.0 | 0.0 | 0.00 | 0.00 | 0.00 | 80 | 1015.0 |
| 20260902120954 | 77 | 360 | 0.0 | 0.0 | 0.00 | 0.00 | 0.00 | 80 | 1015.0 |
| 20260902120454 | 77 | 360 | 0.0 | 0.0 | 0.00 | 0.00 | 0.00 | 80 | 1015.0 |
| 20260902115956 | 77 | 94 | 0.0 | 0.0 | 0.00 | 0.00 | 0.00 | 80 | 1015.0 |
| 20260902115454 | 77 | 63 | 0.0 | 1.0 | 0.00 | 0.00 | 0.00 | 79 | 1015.0 |
| 20260902114955 | 78 | 133 | 0.0 | 0.0 | 0.00 | 0.00 | 0.00 | 78 | 1015.0 |
| 20260902114454 | 78 | 360 | 0.0 | 0.0 | 0.00 | 0.00 | 0.00 | 77 | 1015.0 |
| 20260902113954 | 78 | 203 | 0.0 | 1.0 | 0.00 | 0.00 | 0.00 | 76 | 1015.0 |
| 20260902113454 | 79 | 360 | 0.0 | 0.0 | 0.00 | 0.00 | 0.00 | 76 | 1015.0 |
| 20260902112956 | 79 | 360 | 0.0 | 0.0 | 0.00 | 0.00 | 0.00 | 75 | 1015.0 |
| 20260902112455 | 79 | 117 | 0.0 | 3.0 | 0.00 | 0.00 | 0.00 | 75 | 1015.0 |
| 20260902111954 | 79 | 151 | 0.0 | 2.0 | 0.00 | 0.00 | 0.00 | 75 | 1015.0 |
| 20260902111455 | 79 | 154 | 2.0 | 3.0 | 0.00 | 0.00 | 0.00 | 75 | 1015.0 |
| 20260902110954 | 79 | 171 | 0.0 | 1.0 | 0.00 | 0.00 | 0.00 | 74 | 1015.0 |
| 20260902110455 | 80 | 219 | 1.0 | 2.0 | 0.00 | 0.00 | 0.00 | 74 | 1015.0 |
| 20260902105954 | 80 | 178 | 2.0 | 3.0 | 0.00 | 0.00 | 0.00 | 74 | 1015.0 |
| 20260902105454 | 80 | 162 | 2.0 | 4.0 | 0.00 | 0.00 | 0.00 | 74 | 1015.0 |
| 20260902104954 | 80 | 181 | 2.0 | 4.0 | 0.00 | 0.00 | 0.00 | 74 | 1015.0 |
| 20260902104455 | 80 | 167 | 2.0 | 3.0 | 0.00 | 0.00 | 0.00 | 74 | 1015.0 |
| 20260902103955 | 79 | 151 | 1.0 | 3.0 | 0.00 | 0.00 | 0.00 | 75 | 1015.0 |
| 20260902103454 | 79 | 193 | 1.0 | 2.0 | 0.00 | 0.00 | 0.00 | 76 | 1015.0 |
| 20260902102956 | 79 | 168 | 1.0 | 2.0 | 0.00 | 0.00 | 0.00 | 76 | 1015.0 |
| 20260902102454 | 79 | 211 | 1.0 | 2.0 | 0.00 | 0.00 | 0.00 | 76 | 1015.0 |
| 20260902101954 | 79 | 157 | 0.0 | 2.0 | 0.00 | 0.00 | 0.00 | 76 | 1015.0 |
| 20260902101455 | 79 | 126 | 0.0 | 0.0 | 0.00 | 0.00 | 0.00 | 77 | 1015.0 |
| 20260902100954 | 78 | 237 | 0.0 | 1.0 | 0.00 | 0.00 | 0.00 | 78 | 1015.0 |
| 20260902100455 | 78 | 216 | 1.0 | 2.0 | 0.00 | 0.00 | 0.00 | 79 | 1015.0 |
| 20260902095954 | 78 | 211 | 0.0 | 1.0 | 0.00 | 0.00 | 0.00 | 79 | 1015.0 |
| 20260902095454 | 78 | 183 | 0.0 | 1.0 | 0.00 | 0.00 | 0.00 | 79 | 1015.0 |
| 20260902094958 | 78 | 172 | 0.0 | 1.0 | 0.00 | 0.00 | 0.00 | 79 | 1015.0 |
| 20260902094454 | 78 | 360 | 0.0 | 0.0 | 0.00 | 0.00 | 0.00 | 79 | 1015.0 |
| 20260902094002 | 78 | 57 | 0.0 | 1.0 | 0.00 | 0.00 | 0.00 | 79 | 1015.0 |
| 20260902093454 | 79 | 360 | 0.0 | 0.0 | 0.00 | 0.00 | 0.00 | 79 | 1015.0 |
| 20260902092955 | 79 | 177 | 0.0 | 1.0 | 0.00 | 0.00 | 0.00 | 78 | 1015.0 |
| 20260902092455 | 79 | 302 | 0.0 | 1.0 | 0.00 | 0.00 | 0.00 | 78 | 1015.0 |
| 20260902091954 | 79 | 238 | 0.0 | 1.0 | 0.00 | 0.00 | 0.00 | 77 | 1015.0 |
| 20260902091455 | 79 | 360 | 0.0 | 0.0 | 0.00 | 0.00 | 0.00 | 77 | 1015.0 |
| 20260902090954 | 79 | 162 | 0.0 | 1.0 | 0.00 | 0.00 | 0.00 | 77 | 1015.0 |
| 20260902090454 | 79 | 327 | 0.0 | 1.0 | 0.00 | 0.00 | 0.00 | 76 | 1015.0 |
| 20260902085955 | 79 | 360 | 0.0 | 0.0 | 0.00 | 0.00 | 0.00 | 77 | 1015.0 |
| 20260902085454 | 79 | 360 | 0.0 | 0.0 | 0.00 | 0.00 | 0.00 | 76 | 1015.0 |
| 20260902084955 | 79 | 360 | 0.0 | 0.0 | 0.00 | 0.00 | 0.00 | 76 | 1015.0 |
| 20260902084454 | 79 | 360 | 0.0 | 0.0 | 0.00 | 0.00 | 0.00 | 76 | 1015.0 |
| 20260902083954 | 79 | 85 | 0.0 | 1.0 | 0.00 | 0.00 | 0.00 | 76 | 1015.0 |
| 20260902083454 | 79 | 360 | 0.0 | 0.0 | 0.00 | 0.00 | 0.00 | 76 | 1015.0 |
| 20260902082955 | 79 | 360 | 0.0 | 0.0 | 0.00 | 0.00 | 0.00 | 75 | 1015.0 |
| 20260902082454 | 79 | 87 | 0.0 | 1.0 | 0.00 | 0.00 | 0.00 | 75 | 1015.0 |
| 20260902081954 | 79 | 191 | 0.0 | 2.0 | 0.00 | 0.00 | 0.00 | 75 | 1015.0 |
| 20260902081455 | 80 | 95 | 0.0 | 1.0 | 0.00 | 0.00 | 0.00 | 74 | 1015.0 |
| 20260902080954 | 80 | 46 | 0.0 | 2.0 | 0.00 | 0.00 | 0.00 | 74 | 1015.0 |
| 20260902080456 | 80 | 94 | 1.0 | 2.0 | 0.00 | 0.00 | 0.00 | 74 | 1015.0 |
| 20260902075955 | 80 | 80 | 0.0 | 1.0 | 0.00 | 0.00 | 0.00 | 73 | 1015.0 |
| 20260902075454 | 80 | 155 | 0.0 | 2.0 | 0.00 | 0.00 | 0.00 | 73 | 1015.0 |
| 20260902074955 | 80 | 103 | 1.0 | 3.0 | 0.00 | 0.00 | 0.00 | 73 | 1015.0 |
| 20260902074455 | 80 | 83 | 1.0 | 1.0 | 0.00 | 0.00 | 0.00 | 73 | 1015.0 |
| 20260902073955 | 80 | 101 | 1.0 | 1.0 | 0.00 | 0.00 | 0.00 | 73 | 1015.0 |
| 20260902073454 | 80 | 89 | 0.0 | 1.0 | 0.00 | 0.00 | 0.00 | 72 | 1015.0 |
| 20260902072954 | 80 | 84 | 2.0 | 3.0 | 0.00 | 0.00 | 0.00 | 72 | 1015.0 |
| 20260902072455 | 81 | 117 | 0.0 | 1.0 | 0.00 | 0.00 | 0.00 | 72 | 1015.0 |
| 20260902071954 | 81 | 124 | 0.0 | 1.0 | 0.00 | 0.00 | 0.00 | 72 | 1015.0 |
| 20260902071454 | 81 | 106 | 0.0 | 2.0 | 0.00 | 0.00 | 0.00 | 71 | 1015.0 |
| 20260902070956 | 81 | 96 | 0.0 | 1.0 | 0.00 | 0.00 | 0.00 | 71 | 1015.0 |
| 20260902070454 | 81 | 80 | 0.0 | 2.0 | 0.00 | 0.00 | 0.00 | 71 | 1015.0 |
| 20260902065955 | 81 | 99 | 0.0 | 2.0 | 0.00 | 0.00 | 0.00 | 71 | 1015.0 |
| 20260902065456 | 82 | 360 | 0.0 | 0.0 | 0.00 | 0.00 | 0.00 | 70 | 1015.0 |
| 20260902064955 | 82 | 108 | 0.0 | 2.0 | 0.00 | 0.00 | 0.00 | 70 | 1015.0 |
| 20260902064455 | 82 | 80 | 0.0 | 2.0 | 0.00 | 0.00 | 0.00 | 69 | 1015.0 |
| 20260902063954 | 82 | 90 | 0.0 | 2.0 | 0.00 | 0.00 | 0.00 | 69 | 1015.0 |
| 20260902063455 | 82 | 85 | 0.0 | 1.0 | 0.00 | 0.00 | 0.00 | 68 | 1015.0 |
| 20260902062954 | 82 | 90 | 1.0 | 2.0 | 0.00 | 0.00 | 0.00 | 68 | 1015.0 |
| 20260902062454 | 82 | 111 | 0.0 | 2.0 | 0.00 | 0.00 | 0.00 | 68 | 1015.0 |
| 20260902061955 | 82 | 82 | 1.0 | 2.0 | 0.00 | 0.00 | 0.00 | 68 | 1015.0 |
| 20260902061454 | 82 | 88 | 0.0 | 1.0 | 0.00 | 0.00 | 0.00 | 68 | 1015.0 |
| 20260902060955 | 83 | 88 | 1.0 | 2.0 | 0.00 | 0.00 | 0.00 | 67 | 1015.0 |
| 20260902060454 | 83 | 87 | 0.0 | 1.0 | 0.00 | 0.00 | 0.00 | 67 | 1015.0 |
| 20260902055954 | 83 | 92 | 0.0 | 1.0 | 0.00 | 0.00 | 0.00 | 66 | 1015.0 |
| 20260902055456 | 83 | 74 | 1.0 | 2.0 | 0.00 | 0.00 | 0.00 | 66 | 1015.0 |
| 20260902054955 | 83 | 82 | 1.0 | 2.0 | 0.00 | 0.00 | 0.00 | 66 | 1015.0 |
| 20260902054454 | 83 | 141 | 0.0 | 1.0 | 0.00 | 0.00 | 0.00 | 66 | 1015.0 |
| 20260902053955 | 83 | 118 | 0.0 | 1.0 | 0.00 | 0.00 | 0.00 | 65 | 1015.0 |
| 20260902053454 | 83 | 92 | 1.0 | 2.0 | 0.00 | 0.00 | 0.00 | 65 | 1015.0 |
| 20260902052955 | 84 | 283 | 0.0 | 1.0 | 0.00 | 0.00 | 0.00 | 65 | 1015.0 |
| 20260902052456 | 84 | 183 | 0.0 | 1.0 | 0.00 | 0.00 | 0.00 | 65 | 1015.0 |
| 20260902051956 | 84 | 144 | 0.0 | 2.0 | 0.00 | 0.00 | 0.00 | 64 | 1015.0 |
| 20260902051454 | 84 | 75 | 0.0 | 2.0 | 0.00 | 0.00 | 0.00 | 64 | 1015.0 |
| 20260902050955 | 84 | 128 | 0.0 | 2.0 | 0.00 | 0.00 | 0.00 | 64 | 1015.0 |
| 20260902050456 | 85 | 114 | 1.0 | 3.0 | 0.00 | 0.00 | 0.00 | 63 | 1015.0 |
| 20260902045955 | 85 | 106 | 2.0 | 5.0 | 0.00 | 0.00 | 0.00 | 63 | 1015.0 |
| 20260902045456 | 85 | 111 | 0.0 | 1.0 | 0.00 | 0.00 | 0.00 | 63 | 1015.0 |
| 20260902044955 | 85 | 155 | 1.0 | 3.0 | 0.00 | 0.00 | 0.00 | 63 | 1015.0 |
| 20260902044454 | 85 | 87 | 0.0 | 1.0 | 0.00 | 0.00 | 0.00 | 62 | 1015.0 |
| 20260902043955 | 86 | 138 | 1.0 | 2.0 | 0.00 | 0.00 | 0.00 | 62 | 1015.0 |
| 20260902043455 | 86 | 73 | 1.0 | 4.0 | 0.00 | 0.00 | 0.00 | 61 | 1015.0 |
| 20260902042955 | 86 | 95 | 1.0 | 3.0 | 0.00 | 0.00 | 0.00 | 61 | 1015.0 |
| 20260902042455 | 86 | 95 | 1.0 | 3.0 | 0.00 | 0.00 | 0.00 | 61 | 1015.0 |
| 20260902041954 | 86 | 82 | 0.0 | 1.0 | 0.00 | 0.00 | 0.00 | 61 | 1015.0 |
| 20260902041454 | 86 | 86 | 1.0 | 1.0 | 0.00 | 0.00 | 0.00 | 61 | 1015.0 |
| 20260902040954 | 87 | 92 | 1.0 | 2.0 | 0.00 | 0.00 | 0.00 | 60 | 1015.0 |
| 20260902040454 | 87 | 116 | 0.0 | 2.0 | 0.00 | 0.00 | 0.00 | 60 | 1015.0 |
| 20260902035954 | 87 | 97 | 1.0 | 2.0 | 0.00 | 0.00 | 0.00 | 60 | 1015.0 |
| 20260902035454 | 87 | 98 | 1.0 | 2.0 | 0.00 | 0.00 | 0.00 | 59 | 1015.0 |
| 20260902034955 | 87 | 90 | 1.0 | 2.0 | 0.00 | 0.00 | 0.00 | 59 | 1015.0 |
| 20260902034455 | 87 | 94 | 0.0 | 0.0 | 0.00 | 0.00 | 0.00 | 59 | 1015.0 |
| 20260902033955 | 87 | 155 | 0.0 | 1.0 | 0.00 | 0.00 | 0.00 | 58 | 1015.0 |
| 20260902033455 | 88 | 80 | 1.0 | 2.0 | 0.00 | 0.00 | 0.00 | 58 | 1015.0 |
| 20260902032958 | 88 | 133 | 0.0 | 1.0 | 0.00 | 0.00 | 0.00 | 57 | 1015.0 |
| 20260902032454 | 88 | 109 | 1.0 | 3.0 | 0.00 | 0.00 | 0.00 | 57 | 1015.0 |
| 20260902031954 | 88 | 76 | 0.0 | 2.0 | 0.00 | 0.00 | 0.00 | 57 | 1015.0 |
| 20260902031454 | 88 | 101 | 0.0 | 2.0 | 0.00 | 0.00 | 0.00 | 57 | 1015.0 |
| 20260902030955 | 88 | 108 | 0.0 | 2.0 | 0.00 | 0.00 | 0.00 | 57 | 1015.0 |
| 20260902030455 | 88 | 94 | 0.0 | 2.0 | 0.00 | 0.00 | 0.00 | 56 | 1014.0 |
| 20260902025954 | 88 | 142 | 1.0 | 2.0 | 0.00 | 0.00 | 0.00 | 56 | 1014.0 |
| 20260902025455 | 89 | 104 | 0.0 | 2.0 | 0.00 | 0.00 | 0.00 | 56 | 1014.0 |
| 20260902024954 | 89 | 92 | 1.0 | 2.0 | 0.00 | 0.00 | 0.00 | 55 | 1014.0 |
| 20260902024455 | 89 | 95 | 1.0 | 2.0 | 0.00 | 0.00 | 0.00 | 55 | 1014.0 |
| 20260902023954 | 89 | 101 | 1.0 | 2.0 | 0.00 | 0.00 | 0.00 | 54 | 1014.0 |
| 20260902023456 | 89 | 127 | 1.0 | 2.0 | 0.00 | 0.00 | 0.00 | 54 | 1014.0 |
| 20260902022955 | 89 | 128 | 0.0 | 1.0 | 0.00 | 0.00 | 0.00 | 54 | 1014.0 |
| 20260902022455 | 89 | 134 | 1.0 | 2.0 | 0.00 | 0.00 | 0.00 | 53 | 1014.0 |
| 20260902021955 | 89 | 102 | 1.0 | 3.0 | 0.00 | 0.00 | 0.00 | 53 | 1014.0 |
| 20260902021455 | 89 | 100 | 1.0 | 3.0 | 0.00 | 0.00 | 0.00 | 52 | 1014.0 |
| 20260902020956 | 90 | 118 | 1.0 | 2.0 | 0.00 | 0.00 | 0.00 | 52 | 1014.0 |
| 20260902020454 | 90 | 81 | 0.0 | 1.0 | 0.00 | 0.00 | 0.00 | 51 | 1013.0 |
| 20260902015955 | 90 | 141 | 0.0 | 1.0 | 0.00 | 0.00 | 0.00 | 51 | 1013.0 |
| 20260902015455 | 90 | 116 | 1.0 | 2.0 | 0.00 | 0.00 | 0.00 | 50 | 1013.0 |
| 20260902014955 | 91 | 147 | 0.0 | 1.0 | 0.00 | 0.00 | 0.00 | 50 | 1013.0 |
| 20260902014456 | 91 | 108 | 0.0 | 1.0 | 0.00 | 0.00 | 0.00 | 49 | 1013.0 |
| 20260902013954 | 91 | 105 | 1.0 | 2.0 | 0.00 | 0.00 | 0.00 | 49 | 1013.0 |
| 20260902013457 | 91 | 120 | 1.0 | 3.0 | 0.00 | 0.00 | 0.00 | 48 | 1013.0 |
| 20260902012954 | 92 | 130 | 2.0 | 3.0 | 0.00 | 0.00 | 0.00 | 48 | 1013.0 |
| 20260902012454 | 92 | 125 | 1.0 | 2.0 | 0.00 | 0.00 | 0.00 | 47 | 1013.0 |
| 20260902011955 | 92 | 101 | 1.0 | 2.0 | 0.00 | 0.00 | 0.00 | 47 | 1013.0 |
| 20260902011454 | 93 | 98 | 2.0 | 2.0 | 0.00 | 0.00 | 0.00 | 46 | 1013.0 |
| 20260902010955 | 93 | 95 | 2.0 | 4.0 | 0.00 | 0.00 | 0.00 | 45 | 1013.0 |
| 20260902010454 | 93 | 95 | 2.0 | 3.0 | 0.00 | 0.00 | 0.00 | 44 | 1013.0 |
| 20260902005954 | 94 | 94 | 2.0 | 3.0 | 0.00 | 0.00 | 0.00 | 43 | 1013.0 |
| 20260902005455 | 94 | 110 | 1.0 | 2.0 | 0.00 | 0.00 | 0.00 | 43 | 1013.0 |
| 20260902004957 | 94 | 96 | 1.0 | 2.0 | 0.00 | 0.00 | 0.00 | 43 | 1013.0 |
| 20260902004454 | 94 | 118 | 1.0 | 2.0 | 0.00 | 0.00 | 0.00 | 42 | 1013.0 |
| 20260902003956 | 94 | 107 | 2.0 | 2.0 | 0.00 | 0.00 | 0.00 | 42 | 1013.0 |
| 20260902003455 | 95 | 87 | 2.0 | 3.0 | 0.00 | 0.00 | 0.00 | 42 | 1013.0 |
| 20260902002955 | 95 | 140 | 1.0 | 1.0 | 0.00 | 0.00 | 0.00 | 43 | 1013.0 |
| 20260902002455 | 95 | 89 | 1.0 | 2.0 | 0.00 | 0.00 | 0.00 | 42 | 1013.0 |
| 20260902001954 | 95 | 93 | 1.0 | 2.0 | 0.00 | 0.00 | 0.00 | 42 | 1013.0 |
| 20260902001455 | 96 | 109 | 1.0 | 2.0 | 0.00 | 0.00 | 0.00 | 42 | 1013.0 |
| 20260902000955 | 96 | 92 | 2.0 | 3.0 | 0.00 | 0.00 | 0.00 | 42 | 1013.0 |
| 20260902000454 | 96 | 76 | 2.0 | 3.0 | 0.00 | 0.00 | 0.00 | 41 | 1013.0 |
| 20260901235955 | 97 | 80 | 2.0 | 4.0 | 0.00 | 0.00 | 0.00 | 41 | 1013.0 |
| 20260901235454 | 97 | 93 | 1.0 | 2.0 | 0.00 | 0.00 | 0.00 | 41 | 1013.0 |
| 20260901234954 | 97 | 87 | 1.0 | 2.0 | 0.00 | 0.00 | 0.00 | 40 | 1013.0 |
| 20260901234455 | 98 | 97 | 2.0 | 3.0 | 0.00 | 0.00 | 0.00 | 39 | 1013.0 |
| 20260901233956 | 98 | 90 | 1.0 | 3.0 | 0.00 | 0.00 | 0.00 | 38 | 1013.0 |
| 20260901233454 | 97 | 106 | 1.0 | 2.0 | 0.00 | 0.00 | 0.00 | 38 | 1013.0 |
| 20260901232954 | 98 | 102 | 1.0 | 2.0 | 0.00 | 0.00 | 0.00 | 37 | 1013.0 |
| 20260901232454 | 97 | 88 | 1.0 | 3.0 | 0.00 | 0.00 | 0.00 | 37 | 1013.0 |
| 20260901231957 | 97 | 118 | 1.0 | 2.0 | 0.00 | 0.00 | 0.00 | 38 | 1013.0 |
| 20260901231454 | 97 | 91 | 1.0 | 1.0 | 0.00 | 0.00 | 0.00 | 39 | 1013.0 |
| 20260901230954 | 97 | 88 | 2.0 | 3.0 | 0.00 | 0.00 | 0.00 | 39 | 1013.0 |
| 20260901230455 | 96 | 131 | 1.0 | 2.0 | 0.00 | 0.00 | 0.00 | 41 | 1013.0 |
| 20260901225954 | 96 | 92 | 1.0 | 2.0 | 0.00 | 0.00 | 0.00 | 42 | 1013.0 |
| 20260901225455 | 96 | 125 | 1.0 | 2.0 | 0.00 | 0.00 | 0.00 | 43 | 1013.0 |
| 20260901224954 | 96 | 120 | 2.0 | 2.0 | 0.00 | 0.00 | 0.00 | 41 | 1013.0 |
| 20260901224454 | 96 | 89 | 2.0 | 4.0 | 0.00 | 0.00 | 0.00 | 41 | 1013.0 |
| 20260901223955 | 97 | 112 | 2.0 | 2.0 | 0.00 | 0.00 | 0.00 | 41 | 1013.0 |
| 20260901223454 | 98 | 127 | 2.0 | 3.0 | 0.00 | 0.00 | 0.00 | 40 | 1013.0 |
| 20260901222955 | 99 | 99 | 2.0 | 4.0 | 0.00 | 0.00 | 0.00 | 39 | 1013.0 |
| 20260901222455 | 99 | 89 | 2.0 | 3.0 | 0.00 | 0.00 | 0.00 | 39 | 1013.0 |
| 20260901221954 | 99 | 102 | 1.0 | 2.0 | 0.00 | 0.00 | 0.00 | 40 | 1013.0 |
| 20260901221455 | 98 | 83 | 2.0 | 2.0 | 0.00 | 0.00 | 0.00 | 39 | 1013.0 |
| 20260901220954 | 98 | 82 | 1.0 | 1.0 | 0.00 | 0.00 | 0.00 | 40 | 1013.0 |
| 20260901220455 | 97 | 98 | 2.0 | 3.0 | 0.00 | 0.00 | 0.00 | 40 | 1013.0 |
| 20260901215954 | 96 | 128 | 2.0 | 3.0 | 0.00 | 0.00 | 0.00 | 41 | 1013.0 |
| 20260901215455 | 96 | 86 | 1.0 | 2.0 | 0.00 | 0.00 | 0.00 | 42 | 1013.0 |
| 20260901214954 | 97 | 134 | 1.0 | 3.0 | 0.00 | 0.00 | 0.00 | 42 | 1013.0 |
| 20260901214455 | 98 | 88 | 1.0 | 2.0 | 0.00 | 0.00 | 0.00 | 41 | 1013.0 |
| 20260901213955 | 101 | 94 | 2.0 | 5.0 | 0.00 | 0.00 | 0.00 | 39 | 1013.0 |
| 20260901213454 | 101 | 149 | 1.0 | 2.0 | 0.00 | 0.00 | 0.00 | 38 | 1013.0 |
| 20260901212955 | 100 | 144 | 2.0 | 2.0 | 0.00 | 0.00 | 0.00 | 40 | 1013.0 |
| 20260901212455 | 100 | 150 | 2.0 | 3.0 | 0.00 | 0.00 | 0.00 | 40 | 1013.0 |
| 20260901211954 | 100 | 110 | 1.0 | 2.0 | 0.00 | 0.00 | 0.00 | 39 | 1013.0 |
| 20260901211454 | 99 | 162 | 2.0 | 3.0 | 0.00 | 0.00 | 0.00 | 41 | 1013.0 |
| 20260901210955 | 99 | 111 | 2.0 | 3.0 | 0.00 | 0.00 | 0.00 | 41 | 1013.0 |
| 20260901210455 | 98 | 127 | 2.0 | 3.0 | 0.00 | 0.00 | 0.00 | 41 | 1013.0 |
| 20260901205955 | 99 | 90 | 2.0 | 3.0 | 0.00 | 0.00 | 0.00 | 39 | 1013.0 |
| 20260901205459 | 98 | 142 | 1.0 | 3.0 | 0.00 | 0.00 | 0.00 | 41 | 1013.0 |
| 20260901204954 | 98 | 86 | 1.0 | 2.0 | 0.00 | 0.00 | 0.00 | 41 | 1013.0 |
| 20260901204455 | 98 | 98 | 2.0 | 4.0 | 0.00 | 0.00 | 0.00 | 41 | 1014.0 |
| 20260901203955 | 97 | 138 | 1.0 | 2.0 | 0.00 | 0.00 | 0.00 | 43 | 1014.0 |
| 20260901203454 | 96 | 122 | 1.0 | 2.0 | 0.00 | 0.00 | 0.00 | 45 | 1014.0 |
| 20260901202955 | 95 | 82 | 1.0 | 3.0 | 0.00 | 0.00 | 0.00 | 44 | 1014.0 |
| 20260901202455 | 95 | 203 | 2.0 | 2.0 | 0.00 | 0.00 | 0.00 | 46 | 1014.0 |
| 20260901201954 | 96 | 79 | 1.0 | 2.0 | 0.00 | 0.00 | 0.00 | 45 | 1014.0 |
| 20260901201455 | 97 | 109 | 1.0 | 3.0 | 0.00 | 0.00 | 0.00 | 44 | 1014.0 |
| 20260901200955 | 98 | 132 | 2.0 | 3.0 | 0.00 | 0.00 | 0.00 | 42 | 1014.0 |
| 20260901200454 | 98 | 113 | 2.0 | 4.0 | 0.00 | 0.00 | 0.00 | 42 | 1014.0 |
| 20260901195954 | 98 | 140 | 2.0 | 2.0 | 0.00 | 0.00 | 0.00 | 42 | 1014.0 |
| 20260901195455 | 98 | 135 | 2.0 | 4.0 | 0.00 | 0.00 | 0.00 | 42 | 1014.0 |
| 20260901194954 | 98 | 125 | 2.0 | 3.0 | 0.00 | 0.00 | 0.00 | 42 | 1014.0 |
| 20260901194454 | 98 | 82 | 2.0 | 3.0 | 0.00 | 0.00 | 0.00 | 42 | 1014.0 |
| 20260901193956 | 98 | 103 | 2.0 | 4.0 | 0.00 | 0.00 | 0.00 | 42 | 1014.0 |
| 20260901193454 | 97 | 196 | 1.0 | 2.0 | 0.00 | 0.00 | 0.00 | 46 | 1014.0 |
| 20260901192954 | 96 | 143 | 1.0 | 3.0 | 0.00 | 0.00 | 0.00 | 46 | 1014.0 |
| 20260901192455 | 95 | 106 | 1.0 | 2.0 | 0.00 | 0.00 | 0.00 | 45 | 1015.0 |
| 20260901191955 | 95 | 176 | 3.0 | 4.0 | 0.00 | 0.00 | 0.00 | 45 | 1015.0 |
| 20260901191454 | 94 | 336 | 1.0 | 2.0 | 0.00 | 0.00 | 0.00 | 47 | 1015.0 |
| 20260901190955 | 95 | 78 | 1.0 | 2.0 | 0.00 | 0.00 | 0.00 | 45 | 1015.0 |
| 20260901190455 | 96 | 53 | 1.0 | 2.0 | 0.00 | 0.00 | 0.00 | 44 | 1015.0 |
| 20260901185954 | 95 | 132 | 1.0 | 2.0 | 0.00 | 0.00 | 0.00 | 48 | 1015.0 |
| 20260901185454 | 95 | 96 | 0.0 | 1.0 | 0.00 | 0.00 | 0.00 | 48 | 1015.0 |
| 20260901184955 | 96 | 83 | 1.0 | 2.0 | 0.00 | 0.00 | 0.00 | 46 | 1015.0 |
| 20260901184455 | 97 | 126 | 2.0 | 3.0 | 0.00 | 0.00 | 0.00 | 44 | 1015.0 |
| 20260901183954 | 97 | 122 | 1.0 | 1.0 | 0.00 | 0.00 | 0.00 | 45 | 1015.0 |
| 20260901183455 | 96 | 84 | 1.0 | 1.0 | 0.00 | 0.00 | 0.00 | 47 | 1015.0 |
| 20260901182955 | 95 | 131 | 1.0 | 2.0 | 0.00 | 0.00 | 0.00 | 49 | 1015.0 |
| 20260901182455 | 94 | 148 | 0.0 | 1.0 | 0.00 | 0.00 | 0.00 | 48 | 1015.0 |
| 20260901181957 | 94 | 123 | 0.0 | 1.0 | 0.00 | 0.00 | 0.00 | 49 | 1016.0 |
| 20260901181455 | 94 | 115 | 1.0 | 2.0 | 0.00 | 0.00 | 0.00 | 48 | 1016.0 |
| 20260901180954 | 95 | 134 | 2.0 | 3.0 | 0.00 | 0.00 | 0.00 | 47 | 1016.0 |
| 20260901180454 | 95 | 159 | 2.0 | 3.0 | 0.00 | 0.00 | 0.00 | 48 | 1016.0 |
| 20260901175955 | 94 | 92 | 2.0 | 2.0 | 0.00 | 0.00 | 0.00 | 47 | 1016.0 |
| 20260901175454 | 93 | 102 | 2.0 | 4.0 | 0.00 | 0.00 | 0.00 | 49 | 1016.0 |
| 20260901174956 | 94 | 91 | 1.0 | 2.0 | 0.00 | 0.00 | 0.00 | 49 | 1016.0 |
| 20260901174455 | 95 | 238 | 1.0 | 2.0 | 0.00 | 0.00 | 0.00 | 48 | 1016.0 |
| 20260901173955 | 94 | 130 | 1.0 | 2.0 | 0.00 | 0.00 | 0.00 | 49 | 1016.0 |
| 20260901173454 | 94 | 149 | 1.0 | 2.0 | 0.00 | 0.00 | 0.00 | 51 | 1016.0 |
| 20260901172954 | 93 | 115 | 2.0 | 3.0 | 0.00 | 0.00 | 0.00 | 51 | 1016.0 |
| 20260901172455 | 94 | 304 | 2.0 | 3.0 | 0.00 | 0.00 | 0.00 | 49 | 1016.0 |
| 20260901171954 | 94 | 172 | 4.0 | 6.0 | 0.00 | 0.00 | 0.00 | 50 | 1016.0 |
| 20260901171455 | 94 | 83 | 1.0 | 2.0 | 0.00 | 0.00 | 0.00 | 52 | 1017.0 |
| 20260901170954 | 94 | 117 | 1.0 | 3.0 | 0.00 | 0.00 | 0.00 | 51 | 1017.0 |
| 20260901170454 | 93 | 138 | 2.0 | 3.0 | 0.00 | 0.00 | 0.00 | 52 | 1017.0 |
| 20260901165955 | 93 | 165 | 1.0 | 3.0 | 0.00 | 0.00 | 0.00 | 53 | 1017.0 |
| 20260901165455 | 93 | 213 | 2.0 | 3.0 | 0.00 | 0.00 | 0.00 | 53 | 1017.0 |
| 20260901164954 | 93 | 81 | 1.0 | 2.0 | 0.00 | 0.00 | 0.00 | 52 | 1017.0 |
| 20260901164455 | 92 | 210 | 1.0 | 2.0 | 0.00 | 0.00 | 0.00 | 53 | 1017.0 |
| 20260901163956 | 92 | 121 | 0.0 | 2.0 | 0.00 | 0.00 | 0.00 | 54 | 1017.0 |